Weather History for Farmingdale, NY

Change the Weather History Date:

Friday, July 19, 2013

  Actual Average Record
Temperature  
Mean Temperature 86 °F -  
Max Temperature 93 °F 80 °F 93 °F (1999)
Min Temperature 80 °F 65 °F 60 °F (2000)
Cooling Degree Days 22    
Growing Degree Days 36 (Base 50)    
Moisture  
Dew Point 75 °F    
Average Humidity 70    
Maximum Humidity 85    
Minimum Humidity 59    
Precipitation  
Precipitation 0.00 in - - ()
Sea Level Pressure  
Sea Level Pressure 29.90 in    
Wind  
Wind Speed 10 mph (SW)    
Max Wind Speed 18 mph    
Max Gust Speed 26 mph    
Visibility 8 miles    
Events Thunderstorm    
Averages and records for this station are not official NWS values.
T = Trace of Precipitation, MM = Missing Value Source: NWS Daily Summary

Daily Weather History Graph

Daily Weather History Graph

Search for Another Location

Airport:

Trip Planner

Search our weather history database for the weather conditions in past years. The results will help you decide how hot, cold, wet, or windy it might be!

Date:

Astronomy

Jul. 19, 2013 Rise Set
Actual Time 5:38 AM EDT 8:20 PM EDT
Civil Twilight 5:06 AM EDT 8:52 PM EDT
Nautical Twilight 4:26 AM EDT 9:32 PM EDT
Astronomical Twilight 3:40 AM EDT 10:17 PM EDT
Moon 5:20 PM EDT (7/19) 2:17 AM EDT (7/19)
Length of Visible Light 15h 45m
Length of Day
14h 42m
Waxing Gibbous, 86% of the Moon is Illuminated
Jul 19
Waxing Gibbous
Jul 22
Full
Jul 29
Last Quarter
Aug 6
New
Aug 14
First Quarter

Hourly Weather History & Observations

Time (EDT) Temp. Heat Index Dew Point Humidity Pressure Visibility Wind Dir Wind Speed Gust Speed Precip Events Conditions
12:53 AM 82.0 °F 87.9 °F 73.9 °F 76% 29.97 in 10.0 mi WSW 6.9 mph - N/A   Clear
1:53 AM 82.0 °F 87.9 °F 73.9 °F 76% 29.97 in 10.0 mi WSW 6.9 mph - N/A   Clear
2:53 AM 82.0 °F 87.9 °F 73.9 °F 76% 29.96 in 10.0 mi WSW 8.1 mph - N/A   Clear
3:53 AM 82.0 °F 88.6 °F 75.0 °F 79% 29.96 in 9.0 mi WSW 6.9 mph - N/A   Clear
4:53 AM 82.0 °F 88.6 °F 75.0 °F 79% 29.95 in 9.0 mi WSW 6.9 mph - N/A   Clear
5:53 AM 80.1 °F 85.1 °F 75.0 °F 85% 29.95 in 6.0 mi SSW 8.1 mph - N/A   Haze
6:53 AM 81.0 °F 87.3 °F 75.9 °F 85% 29.95 in 5.0 mi WSW 6.9 mph - N/A   Haze
7:53 AM 84.9 °F 93.3 °F 75.0 °F 72% 29.96 in 8.0 mi WSW 9.2 mph - N/A   Partly Cloudy
8:53 AM 87.1 °F 97.3 °F 75.9 °F 69% 29.96 in 7.0 mi WSW 8.1 mph - N/A   Clear
9:53 AM 88.0 °F 100.2 °F 77.0 °F 70% 29.95 in 6.0 mi SSW 6.9 mph - N/A   Haze
10:53 AM 90.0 °F 104.5 °F 78.1 °F 68% 29.94 in 7.0 mi SSW 9.2 mph - N/A   Clear
11:53 AM 91.0 °F 106.2 °F 78.1 °F 66% 29.93 in 7.0 mi SSW 15.0 mph - N/A   Clear
12:53 PM 91.9 °F 105.9 °F 77.0 °F 62% 29.91 in 8.0 mi SW 16.1 mph - N/A Thunderstorm Clear
1:02 PM 91.4 °F 105.1 °F 77.0 °F 63% 29.90 in 8.0 mi SW 13.8 mph 23.0 mph N/A   Clear
1:29 PM 93.2 °F 110.2 °F 78.8 °F 63% 29.89 in 8.0 mi SSW 16.1 mph 21.9 mph N/A Thunderstorm Clear
1:46 PM 93.2 °F 107.2 °F 77.0 °F 59% 29.89 in 8.0 mi SSW 16.1 mph 21.9 mph N/A   Clear
1:53 PM 93.0 °F 106.7 °F 77.0 °F 59% 29.89 in 8.0 mi SSW 18.4 mph - N/A   Clear
2:34 PM 91.4 °F 102.5 °F 75.2 °F 59% 29.88 in 9.0 mi SW 15.0 mph 21.9 mph N/A Thunderstorm Clear
2:53 PM 91.9 °F 103.9 °F 75.9 °F 59% 29.87 in 9.0 mi SW 17.3 mph 23.0 mph N/A Thunderstorm Clear
3:00 PM 91.4 °F 102.5 °F 75.2 °F 59% 29.87 in 9.0 mi SSW 17.3 mph - N/A   Clear
3:53 PM 91.0 °F 101.6 °F 75.0 °F 59% 29.84 in 9.0 mi SW 18.4 mph 25.3 mph N/A   Clear
4:53 PM 89.1 °F 99.1 °F 75.0 °F 63% 29.83 in 8.0 mi SW 16.1 mph 26.5 mph N/A   Clear
5:53 PM 86.0 °F 93.8 °F 73.9 °F 67% 29.81 in 8.0 mi SSW 18.4 mph 23.0 mph N/A   Clear
6:53 PM 84.0 °F 90.2 °F 73.0 °F 69% 29.82 in 8.0 mi SW 18.4 mph 23.0 mph N/A   Clear
7:53 PM 82.0 °F 87.9 °F 73.9 °F 76% 29.82 in 7.0 mi SW 11.5 mph - N/A   Clear
8:53 PM 82.0 °F 87.9 °F 73.9 °F 76% 29.84 in 8.0 mi SW 9.2 mph - N/A   Clear
9:53 PM 82.0 °F 87.9 °F 73.9 °F 76% 29.85 in 9.0 mi SW 10.4 mph - N/A   Clear
10:53 PM 81.0 °F 86.2 °F 73.9 °F 79% 29.83 in 8.0 mi SW 6.9 mph - N/A   Clear
11:53 PM 81.0 °F 86.2 °F 73.9 °F 79% 29.81 in 8.0 mi SW 8.1 mph - N/A   Clear